Find Starlink 34729

NORAD ID: 65364 Int'l Des: 2025-190 Owner: SPXS Country: US Constellation: starlink operational
LEOCIRCULAR

現在のビュー

3D地球を読み込み中...

About Starlink 34729

Starlink 34729 (NORAD 65364) is a starlink constellation satellite (v2 mini) launched Aug 28, 2025 by SPXS of US. It operates in LEO, CIRCULAR orbit with a mass of 575.00 kg.

次回通過

Passes for default location (London). Set your location on the main map for personalized predictions.

高度履歴

Loading altitude history...

軌道要素

1 65364U 25190P 26265.45432895 .00012532 00000-0 38143-3 0 9997
2 65364 53.1604 332.6067 0001269 116.2659 243.8474 15.34397568 60324
Epoch: Sep 22, 2026 • Age: 9 hours

現在のステータス

高度 479.7 km
遠地点 / 近地点 N/A
速度 7.63 km/s
衛星直下点 -47.94°S, 92.07°W
打ち上げ日 Aug 28, 2025
運用期間 1 year
タイプ internet

技術仕様

分類 Payload
質量 575.00 kg
乾燥質量 530.00 kg
長さ 0.30 m
スパン 29.00 m
形状 ? Box + pan
製造者 SPXS
バスタイプ Starlink V2MO
フェーズステータス In Orbit
所有者/国 SPXS/US

Most Searched